AZU4046 SBCF-SBKP

Flight info

Callsign AZU4046
Flight time 0h 53m
Altitude 34000
Route ANDEM UZ30 ENTIT
Aircraft A20N/M-SDE2E3FGHIRWXY/LB1

Departure

Time 2026-05-04 01:42
Airport Tancredo Neves International Airport (SBCF)

Arrival

Time 2026-05-04 02:36
Airport Viracopos International Airport (SBKP)
Time Latitude Longitude Altitude Speed Heading
2026-05-04 01:14 -19.63212 -43.96470 2869 ft 0 kts 67°
2026-05-04 01:27 -19.63215 -43.96477 2849 ft 4 kts 66°
2026-05-04 01:27 -19.63227 -43.96503 2849 ft 4 kts 57°
2026-05-04 01:27 -19.63244 -43.96524 2846 ft 4 kts 26°
2026-05-04 01:28 -19.63261 -43.96526 2849 ft 1 kts 320°
2026-05-04 01:32 -19.63254 -43.96532 2844 ft 5 kts 320°
2026-05-04 01:33 -19.63210 -43.96572 2838 ft 10 kts 319°
2026-05-04 01:33 -19.63160 -43.96618 2837 ft 9 kts 319°
2026-05-04 01:33 -19.63116 -43.96658 2837 ft 8 kts 319°
2026-05-04 01:33 -19.63063 -43.96706 2838 ft 12 kts 319°
2026-05-04 01:34 -19.62986 -43.96776 2836 ft 16 kts 320°
2026-05-04 01:34 -19.62910 -43.96845 2835 ft 11 kts 319°
2026-05-04 01:34 -19.62851 -43.96898 2835 ft 12 kts 319°
2026-05-04 01:34 -19.62792 -43.96960 2835 ft 12 kts 297°
2026-05-04 01:35 -19.62797 -43.97050 2833 ft 13 kts 240°
2026-05-04 01:35 -19.62840 -43.97108 2833 ft 7 kts 241°
2026-05-04 01:35 -19.62819 -43.97161 2834 ft 10 kts 318°
2026-05-04 01:35 -19.62762 -43.97212 2833 ft 13 kts 319°
2026-05-04 01:36 -19.62717 -43.97255 2833 ft 3 kts 319°
2026-05-04 01:36 -19.62674 -43.97294 2836 ft 13 kts 319°
2026-05-04 01:36 -19.62624 -43.97341 2836 ft 12 kts 319°
2026-05-04 01:36 -19.62574 -43.97386 2835 ft 6 kts 319°
2026-05-04 01:37 -19.62531 -43.97426 2833 ft 9 kts 318°
2026-05-04 01:37 -19.62488 -43.97466 2833 ft 7 kts 319°
2026-05-04 01:37 -19.62457 -43.97495 2833 ft 5 kts 319°
2026-05-04 01:37 -19.62434 -43.97516 2833 ft 4 kts 319°
2026-05-04 01:38 -19.62419 -43.97530 2833 ft 2 kts 319°
2026-05-04 01:38 -19.62412 -43.97536 2832 ft 0 kts 319°
2026-05-04 01:38 -19.62411 -43.97537 2831 ft 1 kts 319°
2026-05-04 01:38 -19.62396 -43.97550 2833 ft 4 kts 318°
2026-05-04 01:39 -19.62366 -43.97579 2831 ft 8 kts 317°
2026-05-04 01:39 -19.62322 -43.97618 2831 ft 8 kts 322°
2026-05-04 01:39 -19.62287 -43.97651 2831 ft 6 kts 310°
2026-05-04 01:39 -19.62280 -43.97685 2831 ft 4 kts 259°
2026-05-04 01:40 -19.62287 -43.97707 2832 ft 2 kts 246°
2026-05-04 01:40 -19.62300 -43.97719 2829 ft 0 kts 224°
2026-05-04 01:41 -19.62322 -43.97742 2829 ft 13 kts 225°
2026-05-04 01:41 -19.62401 -43.97773 2827 ft 14 kts 147°
2026-05-04 01:41 -19.62416 -43.97759 2827 ft 0 kts 138°
2026-05-04 01:41 -19.62593 -43.97594 2827 ft 71 kts 139°
2026-05-04 01:42 -19.63131 -43.97098 2827 ft 131 kts 139°
2026-05-04 01:42 -19.63942 -43.96349 2831 ft 177 kts 139°
2026-05-04 01:42 -19.64910 -43.95475 3370 ft 184 kts 139°
2026-05-04 01:42 -19.65872 -43.94597 4107 ft 182 kts 137°
2026-05-04 01:43 -19.66866 -43.93675 4443 ft 200 kts 136°
2026-05-04 01:43 -19.67957 -43.92655 4850 ft 215 kts 136°
2026-05-04 01:43 -19.69125 -43.91646 5505 ft 221 kts 148°
2026-05-04 01:43 -19.70658 -43.91337 6114 ft 236 kts 188°
2026-05-04 01:44 -19.72108 -43.92143 6741 ft 247 kts 225°
2026-05-04 01:44 -19.73222 -43.93583 7447 ft 250 kts 235°
2026-05-04 01:44 -19.74028 -43.95264 7810 ft 272 kts 254°
2026-05-04 01:44 -19.74581 -43.97273 8202 ft 292 kts 255°
2026-05-04 01:45 -19.75135 -43.99378 8905 ft 299 kts 255°
2026-05-04 01:45 -19.75691 -44.01511 9725 ft 302 kts 255°
2026-05-04 01:45 -19.76855 -44.05955 10672 ft 332 kts 255°
2026-05-04 01:46 -19.77490 -44.08368 11077 ft 344 kts 255°
2026-05-04 01:46 -19.78137 -44.10827 11766 ft 347 kts 255°
2026-05-04 01:46 -19.78787 -44.13300 12513 ft 349 kts 255°
2026-05-04 01:46 -19.79443 -44.15789 13262 ft 350 kts 255°
2026-05-04 01:47 -19.80098 -44.18278 13969 ft 351 kts 255°
2026-05-04 01:47 -19.80755 -44.20774 14580 ft 352 kts 255°
2026-05-04 01:47 -19.81416 -44.23285 15163 ft 354 kts 255°
2026-05-04 01:47 -19.82079 -44.25809 15727 ft 356 kts 255°
2026-05-04 01:48 -19.82745 -44.28348 16309 ft 358 kts 255°
2026-05-04 01:48 -19.83415 -44.30908 16898 ft 360 kts 255°
2026-05-04 01:48 -19.84088 -44.33477 17475 ft 362 kts 255°
2026-05-04 01:48 -19.84764 -44.36061 18045 ft 364 kts 255°
2026-05-04 01:49 -19.85445 -44.38659 18589 ft 366 kts 255°
2026-05-04 01:49 -19.86130 -44.41273 19081 ft 368 kts 255°
2026-05-04 01:49 -19.86816 -44.43896 19551 ft 370 kts 255°
2026-05-04 01:49 -19.87504 -44.46537 20032 ft 372 kts 255°
2026-05-04 01:50 -19.88194 -44.49192 20521 ft 374 kts 255°
2026-05-04 01:50 -19.88890 -44.51860 20998 ft 376 kts 255°
2026-05-04 01:50 -19.89589 -44.54537 21462 ft 377 kts 255°
2026-05-04 01:50 -19.90294 -44.57231 21918 ft 379 kts 255°
2026-05-04 01:51 -19.90992 -44.59904 22367 ft 381 kts 255°
2026-05-04 01:51 -19.91701 -44.62629 22822 ft 384 kts 255°
2026-05-04 01:51 -19.92412 -44.65369 23271 ft 386 kts 255°
2026-05-04 01:51 -19.93126 -44.68121 23702 ft 388 kts 255°
2026-05-04 01:52 -19.93844 -44.70895 24071 ft 390 kts 255°
2026-05-04 01:52 -19.94566 -44.73672 24455 ft 391 kts 255°
2026-05-04 01:52 -19.95292 -44.76457 24839 ft 392 kts 255°
2026-05-04 01:52 -19.96019 -44.79254 25217 ft 393 kts 255°
2026-05-04 01:53 -19.96746 -44.82055 25607 ft 393 kts 255°
2026-05-04 01:53 -19.97473 -44.84860 25989 ft 394 kts 255°
2026-05-04 01:53 -19.98200 -44.87672 26367 ft 395 kts 255°
2026-05-04 01:53 -19.98929 -44.90493 26756 ft 396 kts 255°
2026-05-04 01:54 -19.99655 -44.93310 27151 ft 396 kts 255°
2026-05-04 01:54 -20.00382 -44.96138 27521 ft 396 kts 255°
2026-05-04 01:54 -20.01109 -44.98968 27878 ft 397 kts 255°
2026-05-04 01:54 -20.01838 -45.01803 28229 ft 398 kts 255°
2026-05-04 01:55 -20.02570 -45.04650 28593 ft 399 kts 255°
2026-05-04 01:55 -20.03303 -45.07498 28956 ft 400 kts 255°
2026-05-04 01:55 -20.04042 -45.10361 29281 ft 402 kts 255°
2026-05-04 01:55 -20.04781 -45.13229 29623 ft 403 kts 255°
2026-05-04 01:56 -20.05522 -45.16106 29953 ft 404 kts 255°
2026-05-04 01:56 -20.06261 -45.18988 30260 ft 405 kts 256°
2026-05-04 01:56 -20.07001 -45.21878 30526 ft 406 kts 256°
2026-05-04 01:56 -20.07745 -45.24784 30786 ft 407 kts 256°
2026-05-04 01:57 -20.08488 -45.27690 31032 ft 408 kts 256°
2026-05-04 01:57 -20.09232 -45.30605 31270 ft 409 kts 256°
2026-05-04 01:57 -20.09981 -45.33534 31530 ft 410 kts 255°
2026-05-04 01:57 -20.10986 -45.36373 31856 ft 411 kts 246°
2026-05-04 01:58 -20.12474 -45.38983 32103 ft 415 kts 236°
2026-05-04 01:58 -20.14395 -45.41255 32158 ft 410 kts 226°
2026-05-04 01:58 -20.18732 -45.45027 32156 ft 398 kts 224°
2026-05-04 01:59 -20.22981 -45.48723 32161 ft 396 kts 225°
2026-05-04 01:59 -20.27239 -45.52448 32162 ft 396 kts 225°
2026-05-04 02:00 -20.31495 -45.56174 32162 ft 396 kts 225°
2026-05-04 02:00 -20.35749 -45.59897 32160 ft 395 kts 225°
2026-05-04 02:01 -20.39995 -45.63609 32173 ft 395 kts 225°
2026-05-04 02:01 -20.44239 -45.67322 32173 ft 394 kts 225°
2026-05-04 02:02 -20.48473 -45.71040 32155 ft 394 kts 225°
2026-05-04 02:02 -20.52704 -45.74747 32160 ft 394 kts 225°
2026-05-04 02:03 -20.56934 -45.78459 32163 ft 394 kts 225°
2026-05-04 02:03 -20.61161 -45.82171 32162 ft 394 kts 225°
2026-05-04 02:04 -20.65393 -45.85886 32165 ft 394 kts 225°
2026-05-04 02:04 -20.69622 -45.89603 32172 ft 393 kts 225°
2026-05-04 02:05 -20.73815 -45.93292 32180 ft 393 kts 225°
2026-05-04 02:05 -20.78025 -45.97007 32176 ft 392 kts 225°
2026-05-04 02:06 -20.82239 -46.00708 32182 ft 392 kts 225°
2026-05-04 02:06 -20.86447 -46.04418 32171 ft 392 kts 225°
2026-05-04 02:07 -20.90650 -46.08126 32170 ft 392 kts 225°
2026-05-04 02:07 -20.94849 -46.11845 32168 ft 392 kts 225°
2026-05-04 02:08 -20.99516 -46.14951 32167 ft 404 kts 208°
2026-05-04 02:08 -21.04890 -46.16879 32178 ft 408 kts 205°
2026-05-04 02:09 -21.10282 -46.18784 32175 ft 408 kts 206°
2026-05-04 02:09 -21.15663 -46.20695 32169 ft 408 kts 205°
2026-05-04 02:10 -21.21067 -46.22574 32166 ft 408 kts 205°
2026-05-04 02:10 -21.26482 -46.24405 32175 ft 408 kts 205°
2026-05-04 02:11 -21.31902 -46.26239 32171 ft 409 kts 205°
2026-05-04 02:11 -21.37288 -46.28066 32176 ft 409 kts 205°
2026-05-04 02:12 -21.42711 -46.29913 32178 ft 409 kts 205°
2026-05-04 02:12 -21.48134 -46.31765 32181 ft 409 kts 205°
2026-05-04 02:13 -21.53671 -46.33673 31896 ft 433 kts 205°
2026-05-04 02:13 -21.56572 -46.34674 31533 ft 442 kts 205°
2026-05-04 02:13 -21.59501 -46.35675 31012 ft 441 kts 205°
2026-05-04 02:14 -21.62419 -46.36661 30498 ft 437 kts 204°
2026-05-04 02:14 -21.65309 -46.37633 29952 ft 434 kts 205°
2026-05-04 02:14 -21.68170 -46.38619 29455 ft 430 kts 205°
2026-05-04 02:14 -21.71003 -46.39638 28969 ft 427 kts 206°
2026-05-04 02:15 -21.73800 -46.40675 28489 ft 424 kts 206°
2026-05-04 02:15 -21.76579 -46.41719 28009 ft 421 kts 206°
2026-05-04 02:15 -21.79338 -46.42753 27520 ft 419 kts 206°
2026-05-04 02:15 -21.82088 -46.43777 27046 ft 417 kts 205°
2026-05-04 02:16 -21.84827 -46.44789 26553 ft 415 kts 205°
2026-05-04 02:16 -21.87552 -46.45791 26066 ft 412 kts 205°
2026-05-04 02:16 -21.90254 -46.46785 25550 ft 409 kts 205°
2026-05-04 02:16 -21.92901 -46.47758 25053 ft 406 kts 205°
2026-05-04 02:17 -21.95567 -46.48739 24518 ft 404 kts 205°
2026-05-04 02:17 -21.98220 -46.49715 23996 ft 402 kts 204°
2026-05-04 02:17 -22.00858 -46.50684 23419 ft 399 kts 204°
2026-05-04 02:17 -22.03474 -46.51647 22883 ft 396 kts 204°
2026-05-04 02:18 -22.06078 -46.52607 22372 ft 394 kts 204°
2026-05-04 02:18 -22.08665 -46.53561 21867 ft 391 kts 204°
2026-05-04 02:18 -22.11233 -46.54508 21366 ft 389 kts 204°
2026-05-04 02:18 -22.13785 -46.55450 20874 ft 387 kts 203°
2026-05-04 02:19 -22.16326 -46.56387 20375 ft 384 kts 203°
2026-05-04 02:19 -22.18847 -46.57318 19878 ft 382 kts 203°
2026-05-04 02:19 -22.21355 -46.58244 19395 ft 380 kts 203°
2026-05-04 02:19 -22.23850 -46.59166 18913 ft 377 kts 202°
2026-05-04 02:20 -22.26292 -46.60069 18438 ft 376 kts 202°
2026-05-04 02:20 -22.28763 -46.60982 17921 ft 374 kts 202°
2026-05-04 02:20 -22.31212 -46.61889 17460 ft 371 kts 202°
2026-05-04 02:20 -22.33646 -46.62794 16999 ft 369 kts 202°
2026-05-04 02:21 -22.36070 -46.63696 16552 ft 367 kts 202°
2026-05-04 02:21 -22.38480 -46.64589 16107 ft 366 kts 202°
2026-05-04 02:21 -22.40801 -46.65649 15668 ft 359 kts 214°
2026-05-04 02:21 -22.42746 -46.67288 15246 ft 352 kts 229°
2026-05-04 02:22 -22.44276 -46.69332 14815 ft 349 kts 234°
2026-05-04 02:22 -22.45746 -46.71409 14399 ft 347 kts 234°
2026-05-04 02:22 -22.47211 -46.73479 14043 ft 344 kts 234°
2026-05-04 02:22 -22.48623 -46.75471 13729 ft 326 kts 234°
2026-05-04 02:23 -22.49985 -46.77395 13143 ft 317 kts 234°
2026-05-04 02:23 -22.50860 -46.78631 12890 ft 308 kts 234°
2026-05-04 02:23 -22.52557 -46.81029 12388 ft 292 kts 234°
2026-05-04 02:23 -22.53365 -46.82172 12157 ft 285 kts 234°
2026-05-04 02:24 -22.54944 -46.84412 11688 ft 278 kts 234°
2026-05-04 02:24 -22.55717 -46.85511 11448 ft 278 kts 234°
2026-05-04 02:24 -22.56891 -46.87178 11102 ft 279 kts 234°
2026-05-04 02:24 -22.58090 -46.88881 10823 ft 290 kts 234°
2026-05-04 02:25 -22.59316 -46.90627 10524 ft 292 kts 234°
2026-05-04 02:25 -22.60547 -46.92377 10220 ft 291 kts 234°
2026-05-04 02:25 -22.61768 -46.94113 9912 ft 289 kts 234°
2026-05-04 02:25 -22.62982 -46.95839 9596 ft 287 kts 234°
2026-05-04 02:26 -22.64191 -46.97558 9299 ft 287 kts 234°
2026-05-04 02:26 -22.65403 -46.99281 9042 ft 287 kts 234°
2026-05-04 02:26 -22.66615 -47.01004 8847 ft 288 kts 234°
2026-05-04 02:26 -22.67827 -47.02725 8627 ft 287 kts 234°
2026-05-04 02:27 -22.69037 -47.04445 8400 ft 286 kts 234°
2026-05-04 02:27 -22.70243 -47.06160 8202 ft 286 kts 234°
2026-05-04 02:27 -22.71444 -47.07872 7989 ft 285 kts 234°
2026-05-04 02:27 -22.72643 -47.09580 7613 ft 282 kts 234°
2026-05-04 02:28 -22.73832 -47.11275 7364 ft 282 kts 234°
2026-05-04 02:28 -22.74984 -47.12915 7128 ft 266 kts 234°
2026-05-04 02:28 -22.76086 -47.14483 6917 ft 260 kts 234°
2026-05-04 02:28 -22.77182 -47.16046 6758 ft 261 kts 234°
2026-05-04 02:29 -22.78281 -47.17614 6571 ft 261 kts 234°
2026-05-04 02:29 -22.79369 -47.19168 6366 ft 255 kts 234°
2026-05-04 02:29 -22.80395 -47.20631 6196 ft 241 kts 234°
2026-05-04 02:29 -22.81433 -47.22039 6012 ft 238 kts 226°
2026-05-04 02:30 -22.82693 -47.23197 5813 ft 236 kts 218°
2026-05-04 02:30 -22.83979 -47.24264 5602 ft 228 kts 218°
2026-05-04 02:30 -22.85205 -47.25287 5411 ft 217 kts 217°
2026-05-04 02:30 -22.86368 -47.26261 5249 ft 205 kts 216°
2026-05-04 02:31 -22.87598 -47.26968 5166 ft 196 kts 197°
2026-05-04 02:31 -22.88889 -47.27193 5073 ft 182 kts 178°
2026-05-04 02:31 -22.90103 -47.26995 4956 ft 172 kts 161°
2026-05-04 02:31 -22.91157 -47.26455 4801 ft 165 kts 144°
2026-05-04 02:32 -22.91997 -47.25642 4609 ft 161 kts 128°
2026-05-04 02:32 -22.92684 -47.24690 4424 ft 159 kts 127°
2026-05-04 02:32 -22.93358 -47.23750 4218 ft 157 kts 127°
2026-05-04 02:32 -22.94018 -47.22830 4009 ft 151 kts 126°
2026-05-04 02:33 -22.94646 -47.21955 3833 ft 144 kts 126°
2026-05-04 02:33 -22.95256 -47.21105 3642 ft 143 kts 126°
2026-05-04 02:33 -22.95862 -47.20260 3465 ft 140 kts 125°
2026-05-04 02:33 -22.96441 -47.19453 3277 ft 132 kts 125°
2026-05-04 02:34 -22.97003 -47.18669 3108 ft 132 kts 126°
2026-05-04 02:34 -22.97566 -47.17883 2923 ft 132 kts 127°
2026-05-04 02:34 -22.98133 -47.17092 2744 ft 134 kts 128°
2026-05-04 02:34 -22.98722 -47.16276 2522 ft 140 kts 128°
2026-05-04 02:35 -22.99314 -47.15439 2384 ft 139 kts 127°
2026-05-04 02:35 -22.99890 -47.14635 2193 ft 133 kts 128°
2026-05-04 02:35 -23.00411 -47.13909 2159 ft 104 kts 128°
2026-05-04 02:35 -23.00751 -47.13434 2164 ft 55 kts 128°
2026-05-04 02:36 -23.00918 -47.13201 2163 ft 33 kts 128°
2026-05-04 02:36 -23.01045 -47.13025 2162 ft 27 kts 128°
2026-05-04 02:36 -23.01160 -47.12892 2162 ft 23 kts 146°
2026-05-04 02:36 -23.01298 -47.12818 2166 ft 21 kts 157°
2026-05-04 02:37 -23.01387 -47.12829 2166 ft 12 kts 252°
2026-05-04 02:37 -23.01361 -47.12899 2166 ft 9 kts 309°
2026-05-04 02:37 -23.01326 -47.12948 2164 ft 8 kts 306°
2026-05-04 02:37 -23.01287 -47.13004 2167 ft 11 kts 307°
2026-05-04 02:38 -23.01233 -47.13080 2162 ft 13 kts 308°
2026-05-04 02:38 -23.01183 -47.13151 2166 ft 11 kts 307°
2026-05-04 02:38 -23.01139 -47.13211 2166 ft 9 kts 308°
2026-05-04 02:38 -23.01097 -47.13269 2161 ft 11 kts 308°
2026-05-04 02:39 -23.01046 -47.13340 2163 ft 13 kts 307°
2026-05-04 02:39 -23.00990 -47.13420 2164 ft 13 kts 308°
2026-05-04 02:39 -23.00938 -47.13492 2165 ft 11 kts 308°
2026-05-04 02:39 -23.00894 -47.13554 2166 ft 10 kts 308°
2026-05-04 02:40 -23.00850 -47.13615 2166 ft 11 kts 308°
2026-05-04 02:40 -23.00803 -47.13679 2164 ft 11 kts 308°
2026-05-04 02:40 -23.00755 -47.13745 2165 ft 13 kts 308°
2026-05-04 02:40 -23.00720 -47.13846 2168 ft 17 kts 278°
2026-05-04 02:41 -23.00685 -47.13982 2167 ft 21 kts 294°
2026-05-04 02:41 -23.00603 -47.14121 2161 ft 22 kts 307°
2026-05-04 02:41 -23.00513 -47.14247 2163 ft 20 kts 308°
2026-05-04 02:41 -23.00428 -47.14365 2166 ft 19 kts 307°
2026-05-04 02:42 -23.00349 -47.14475 2164 ft 18 kts 307°
2026-05-04 02:42 -23.00275 -47.14576 2165 ft 16 kts 309°
2026-05-04 02:42 -23.00232 -47.14645 2162 ft 6 kts 280°
2026-05-04 02:42 -23.00251 -47.14680 2165 ft 5 kts 214°
2026-05-04 02:43 -23.00277 -47.14699 2166 ft 4 kts 217°
2026-05-04 02:43 -23.00283 -47.14704 2167 ft 0 kts 217°